owner,sensor,date,latitude,longitude,air_temperature,qcFlag 
WAVCIS,ioos:station:WAVCIS:CSI03:1,2017-01-01T00:00:00Z,29.4412,-92.0613,20.02,11111222 
WAVCIS,ioos:station:WAVCIS:CSI03:1,2017-01-01T01:00:00Z,29.4412,-92.0613,20.5,11111222 
WAVCIS,ioos:station:WAVCIS:CSI03:1,2017-01-01T02:00:00Z,29.4412,-92.0613,20.69,11111222 
WAVCIS,ioos:station:WAVCIS:CSI03:1,2017-01-01T03:00:00Z,29.4412,-92.0613,20.53,11111222 
WAVCIS,ioos:station:WAVCIS:CSI03:1,2017-01-01T04:00:00Z,29.4412,-92.0613,21.05,11111222 
WAVCIS,ioos:station:WAVCIS:CSI03:1,2017-01-01T05:00:00Z,29.4412,-92.0613,20.77,11111222 
WAVCIS,ioos:station:WAVCIS:CSI03:1,2017-01-01T06:00:00Z,29.4412,-92.0613,21.17,11111222 
WAVCIS,ioos:station:WAVCIS:CSI03:1,2017-01-01T07:00:00Z,29.4412,-92.0613,20.88,11111222 
WAVCIS,ioos:station:WAVCIS:CSI03:1,2017-01-01T08:00:00Z,29.4412,-92.0613,20.52,11111222 
WAVCIS,ioos:station:WAVCIS:CSI03:1,2017-01-01T09:00:00Z,29.4412,-92.0613,20.13,11111222 
WAVCIS,ioos:station:WAVCIS:CSI03:1,2017-01-01T10:00:00Z,29.4412,-92.0613,20.01,11111222 
WAVCIS,ioos:station:WAVCIS:CSI03:1,2017-01-01T11:00:00Z,29.4412,-92.0613,20.34,11111222 
WAVCIS,ioos:station:WAVCIS:CSI03:1,2017-01-01T12:00:00Z,29.4412,-92.0613,20.18,11111222 
WAVCIS,ioos:station:WAVCIS:CSI03:1,2017-01-01T13:00:00Z,29.4412,-92.0613,19.96,11111222 
WAVCIS,ioos:station:WAVCIS:CSI03:1,2017-01-01T14:00:00Z,29.4412,-92.0613,20.68,11111222 
WAVCIS,ioos:station:WAVCIS:CSI03:1,2017-01-01T15:00:00Z,29.4412,-92.0613,21.24,11111222 
WAVCIS,ioos:station:WAVCIS:CSI03:1,2017-01-01T16:00:00Z,29.4412,-92.0613,21.81,11111222 
WAVCIS,ioos:station:WAVCIS:CSI03:1,2017-01-01T17:00:00Z,29.4412,-92.0613,20.04,11111222 
WAVCIS,ioos:station:WAVCIS:CSI03:1,2017-01-01T18:00:00Z,29.4412,-92.0613,20.87,11111222 
WAVCIS,ioos:station:WAVCIS:CSI03:1,2017-01-01T19:00:00Z,29.4412,-92.0613,21.58,11111222 
WAVCIS,ioos:station:WAVCIS:CSI03:1,2017-01-01T20:00:00Z,29.4412,-92.0613,17.78,11111222 
WAVCIS,ioos:station:WAVCIS:CSI03:1,2017-01-01T21:00:00Z,29.4412,-92.0613,18.81,11111222 
WAVCIS,ioos:station:WAVCIS:CSI03:1,2017-01-01T22:00:00Z,29.4412,-92.0613,18.94,11111222 
WAVCIS,ioos:station:WAVCIS:CSI03:1,2017-01-01T23:00:00Z,29.4412,-92.0613,18.11,11111222 
WAVCIS,ioos:station:WAVCIS:CSI03:1,2017-01-02T00:00:00Z,29.4412,-92.0613,17.64,11111222 
WAVCIS,ioos:station:WAVCIS:CSI03:1,2017-01-02T01:00:00Z,29.4412,-92.0613,18.12,11111222 
WAVCIS,ioos:station:WAVCIS:CSI03:1,2017-01-02T02:00:00Z,29.4412,-92.0613,20.02,11111222 
WAVCIS,ioos:station:WAVCIS:CSI03:1,2017-01-02T03:00:00Z,29.4412,-92.0613,20.4,11111222 
WAVCIS,ioos:station:WAVCIS:CSI03:1,2017-01-02T04:00:00Z,29.4412,-92.0613,19.01,11111222 
WAVCIS,ioos:station:WAVCIS:CSI03:1,2017-01-02T05:00:00Z,29.4412,-92.0613,19.14,11111222 
WAVCIS,ioos:station:WAVCIS:CSI03:1,2017-01-02T06:00:00Z,29.4412,-92.0613,18.51,11111222 
WAVCIS,ioos:station:WAVCIS:CSI03:1,2017-01-02T07:00:00Z,29.4412,-92.0613,18.81,11111222 
WAVCIS,ioos:station:WAVCIS:CSI03:1,2017-01-02T08:00:00Z,29.4412,-92.0613,19.08,11111222 
WAVCIS,ioos:station:WAVCIS:CSI03:1,2017-01-02T09:00:00Z,29.4412,-92.0613,18.97,11111222 
WAVCIS,ioos:station:WAVCIS:CSI03:1,2017-01-02T10:00:00Z,29.4412,-92.0613,18.57,11111222 
WAVCIS,ioos:station:WAVCIS:CSI03:1,2017-01-02T11:00:00Z,29.4412,-92.0613,18.54,11111222 
WAVCIS,ioos:station:WAVCIS:CSI03:1,2017-01-02T12:00:00Z,29.4412,-92.0613,18.73,11111222 
WAVCIS,ioos:station:WAVCIS:CSI03:1,2017-01-02T13:00:00Z,29.4412,-92.0613,19.17,11111222 
WAVCIS,ioos:station:WAVCIS:CSI03:1,2017-01-02T14:00:00Z,29.4412,-92.0613,19.43,11111222 
WAVCIS,ioos:station:WAVCIS:CSI03:1,2017-01-02T15:00:00Z,29.4412,-92.0613,18.95,11111222 
WAVCIS,ioos:station:WAVCIS:CSI03:1,2017-01-02T16:00:00Z,29.4412,-92.0613,19.29,11111222 
WAVCIS,ioos:station:WAVCIS:CSI03:1,2017-01-02T17:00:00Z,29.4412,-92.0613,22.24,11111222 
WAVCIS,ioos:station:WAVCIS:CSI03:1,2017-01-02T18:00:00Z,29.4412,-92.0613,21.31,11111222 
WAVCIS,ioos:station:WAVCIS:CSI03:1,2017-01-02T19:00:00Z,29.4412,-92.0613,21.96,11111222 
WAVCIS,ioos:station:WAVCIS:CSI03:1,2017-01-02T20:00:00Z,29.4412,-92.0613,22.04,11111222 
WAVCIS,ioos:station:WAVCIS:CSI03:1,2017-01-02T21:00:00Z,29.4412,-92.0613,18.52,11111222 
WAVCIS,ioos:station:WAVCIS:CSI03:1,2017-01-02T22:00:00Z,29.4412,-92.0613,18.64,11111222 
WAVCIS,ioos:station:WAVCIS:CSI03:1,2017-01-02T23:00:00Z,29.4412,-92.0613,17.91,11111222 
WAVCIS,ioos:station:WAVCIS:CSI03:1,2017-01-03T00:00:00Z,29.4412,-92.0613,18.08,11111222 
WAVCIS,ioos:station:WAVCIS:CSI03:1,2017-01-03T01:00:00Z,29.4412,-92.0613,17.78,11111222 
WAVCIS,ioos:station:WAVCIS:CSI03:1,2017-01-03T02:00:00Z,29.4412,-92.0613,17.8,11111222 
WAVCIS,ioos:station:WAVCIS:CSI03:1,2017-01-03T03:00:00Z,29.4412,-92.0613,17.88,11111222 
WAVCIS,ioos:station:WAVCIS:CSI03:1,2017-01-03T04:00:00Z,29.4412,-92.0613,17.68,11111222 
WAVCIS,ioos:station:WAVCIS:CSI03:1,2017-01-03T05:00:00Z,29.4412,-92.0613,17.46,11111222 
WAVCIS,ioos:station:WAVCIS:CSI03:1,2017-01-03T06:00:00Z,29.4412,-92.0613,16.93,11111222 
WAVCIS,ioos:station:WAVCIS:CSI03:1,2017-01-03T07:00:00Z,29.4412,-92.0613,16.59,11111222 
WAVCIS,ioos:station:WAVCIS:CSI03:1,2017-01-03T08:00:00Z,29.4412,-92.0613,16.38,11111222 
WAVCIS,ioos:station:WAVCIS:CSI03:1,2017-01-03T09:00:00Z,29.4412,-92.0613,16.27,11111222 
WAVCIS,ioos:station:WAVCIS:CSI03:1,2017-01-03T10:00:00Z,29.4412,-92.0613,16.46,11111222 
WAVCIS,ioos:station:WAVCIS:CSI03:1,2017-01-03T11:00:00Z,29.4412,-92.0613,16.39,11111222 
WAVCIS,ioos:station:WAVCIS:CSI03:1,2017-01-03T12:00:00Z,29.4412,-92.0613,16.02,11111222 
WAVCIS,ioos:station:WAVCIS:CSI03:1,2017-01-03T13:00:00Z,29.4412,-92.0613,15.59,11111222 
WAVCIS,ioos:station:WAVCIS:CSI03:1,2017-01-03T14:00:00Z,29.4412,-92.0613,16.9,11111222 
WAVCIS,ioos:station:WAVCIS:CSI03:1,2017-01-03T15:00:00Z,29.4412,-92.0613,20.52,11111222 
WAVCIS,ioos:station:WAVCIS:CSI03:1,2017-01-03T16:00:00Z,29.4412,-92.0613,18.91,11111222 
WAVCIS,ioos:station:WAVCIS:CSI03:1,2017-01-03T17:00:00Z,29.4412,-92.0613,18.95,11111222 
WAVCIS,ioos:station:WAVCIS:CSI03:1,2017-01-03T18:00:00Z,29.4412,-92.0613,22.22,11111222 
WAVCIS,ioos:station:WAVCIS:CSI03:1,2017-01-03T19:00:00Z,29.4412,-92.0613,19.96,11111222 
WAVCIS,ioos:station:WAVCIS:CSI03:1,2017-01-03T20:00:00Z,29.4412,-92.0613,18.89,11111222 
WAVCIS,ioos:station:WAVCIS:CSI03:1,2017-01-03T21:00:00Z,29.4412,-92.0613,19.72,11111222 
WAVCIS,ioos:station:WAVCIS:CSI03:1,2017-01-03T22:00:00Z,29.4412,-92.0613,19.6,11111222 
WAVCIS,ioos:station:WAVCIS:CSI03:1,2017-01-03T23:00:00Z,29.4412,-92.0613,18.84,11111222 
WAVCIS,ioos:station:WAVCIS:CSI03:1,2017-01-04T00:00:00Z,29.4412,-92.0613,18.65,11111222 
WAVCIS,ioos:station:WAVCIS:CSI03:1,2017-01-04T01:00:00Z,29.4412,-92.0613,18.42,11111222 
WAVCIS,ioos:station:WAVCIS:CSI03:1,2017-01-04T02:00:00Z,29.4412,-92.0613,18.35,11111222 
WAVCIS,ioos:station:WAVCIS:CSI03:1,2017-01-04T03:00:00Z,29.4412,-92.0613,18.33,11111222 
WAVCIS,ioos:station:WAVCIS:CSI03:1,2017-01-04T04:00:00Z,29.4412,-92.0613,18.19,11111222 
WAVCIS,ioos:station:WAVCIS:CSI03:1,2017-01-04T05:00:00Z,29.4412,-92.0613,17.47,11111222 
WAVCIS,ioos:station:WAVCIS:CSI03:1,2017-01-04T06:00:00Z,29.4412,-92.0613,16.86,11111222 
WAVCIS,ioos:station:WAVCIS:CSI03:1,2017-01-04T07:00:00Z,29.4412,-92.0613,15.67,11111222 
WAVCIS,ioos:station:WAVCIS:CSI03:1,2017-01-04T08:00:00Z,29.4412,-92.0613,14.62,11111222 
WAVCIS,ioos:station:WAVCIS:CSI03:1,2017-01-04T09:00:00Z,29.4412,-92.0613,13.58,11111222 
WAVCIS,ioos:station:WAVCIS:CSI03:1,2017-01-04T10:00:00Z,29.4412,-92.0613,12.89,11111222 
WAVCIS,ioos:station:WAVCIS:CSI03:1,2017-01-04T11:00:00Z,29.4412,-92.0613,12.94,11111222 
WAVCIS,ioos:station:WAVCIS:CSI03:1,2017-01-04T12:00:00Z,29.4412,-92.0613,12.88,11111222 
WAVCIS,ioos:station:WAVCIS:CSI03:1,2017-01-04T13:00:00Z,29.4412,-92.0613,13.62,11111222 
WAVCIS,ioos:station:WAVCIS:CSI03:1,2017-01-04T14:00:00Z,29.4412,-92.0613,13.51,11111222 
WAVCIS,ioos:station:WAVCIS:CSI03:1,2017-01-04T15:00:00Z,29.4412,-92.0613,13.29,11111222 
WAVCIS,ioos:station:WAVCIS:CSI03:1,2017-01-04T16:00:00Z,29.4412,-92.0613,13.04,11111222 
WAVCIS,ioos:station:WAVCIS:CSI03:1,2017-01-04T17:00:00Z,29.4412,-92.0613,12.36,11111222 
WAVCIS,ioos:station:WAVCIS:CSI03:1,2017-01-04T18:00:00Z,29.4412,-92.0613,12.61,11111222 
WAVCIS,ioos:station:WAVCIS:CSI03:1,2017-01-04T19:00:00Z,29.4412,-92.0613,13.46,11111222 
WAVCIS,ioos:station:WAVCIS:CSI03:1,2017-01-04T20:00:00Z,29.4412,-92.0613,13.95,11111222 
WAVCIS,ioos:station:WAVCIS:CSI03:1,2017-01-04T21:00:00Z,29.4412,-92.0613,14.65,11111222 
WAVCIS,ioos:station:WAVCIS:CSI03:1,2017-01-04T22:00:00Z,29.4412,-92.0613,14.98,11111222 
WAVCIS,ioos:station:WAVCIS:CSI03:1,2017-01-04T23:00:00Z,29.4412,-92.0613,14.92,11111222 
WAVCIS,ioos:station:WAVCIS:CSI03:1,2017-01-05T00:00:00Z,29.4412,-92.0613,14.75,11111222 
WAVCIS,ioos:station:WAVCIS:CSI03:1,2017-01-05T01:00:00Z,29.4412,-92.0613,14.37,11111222 
WAVCIS,ioos:station:WAVCIS:CSI03:1,2017-01-05T02:00:00Z,29.4412,-92.0613,13.57,11111222 
WAVCIS,ioos:station:WAVCIS:CSI03:1,2017-01-05T03:00:00Z,29.4412,-92.0613,13.24,11111222 
WAVCIS,ioos:station:WAVCIS:CSI03:1,2017-01-05T04:00:00Z,29.4412,-92.0613,13.03,11111222 
WAVCIS,ioos:station:WAVCIS:CSI03:1,2017-01-05T05:00:00Z,29.4412,-92.0613,12.94,11111222 
WAVCIS,ioos:station:WAVCIS:CSI03:1,2017-01-05T06:00:00Z,29.4412,-92.0613,13.31,11111222 
WAVCIS,ioos:station:WAVCIS:CSI03:1,2017-01-05T07:00:00Z,29.4412,-92.0613,13.78,11111222 
WAVCIS,ioos:station:WAVCIS:CSI03:1,2017-01-05T08:00:00Z,29.4412,-92.0613,14.06,11111222 
WAVCIS,ioos:station:WAVCIS:CSI03:1,2017-01-05T09:00:00Z,29.4412,-92.0613,13.94,11111222 
WAVCIS,ioos:station:WAVCIS:CSI03:1,2017-01-05T10:00:00Z,29.4412,-92.0613,13.92,11111222 
WAVCIS,ioos:station:WAVCIS:CSI03:1,2017-01-05T11:00:00Z,29.4412,-92.0613,12.9,11111222 
WAVCIS,ioos:station:WAVCIS:CSI03:1,2017-01-05T12:00:00Z,29.4412,-92.0613,13.17,11111222 
WAVCIS,ioos:station:WAVCIS:CSI03:1,2017-01-05T13:00:00Z,29.4412,-92.0613,13.35,11111222 
WAVCIS,ioos:station:WAVCIS:CSI03:1,2017-01-05T14:00:00Z,29.4412,-92.0613,13.35,11111222 
WAVCIS,ioos:station:WAVCIS:CSI03:1,2017-01-05T15:00:00Z,29.4412,-92.0613,13.66,11111222 
WAVCIS,ioos:station:WAVCIS:CSI03:1,2017-01-05T16:00:00Z,29.4412,-92.0613,13.77,11111222 
WAVCIS,ioos:station:WAVCIS:CSI03:1,2017-01-05T17:00:00Z,29.4412,-92.0613,14.36,11111222 
WAVCIS,ioos:station:WAVCIS:CSI03:1,2017-01-05T18:00:00Z,29.4412,-92.0613,15.01,11111222 
WAVCIS,ioos:station:WAVCIS:CSI03:1,2017-01-05T19:00:00Z,29.4412,-92.0613,15.47,11111222 
WAVCIS,ioos:station:WAVCIS:CSI03:1,2017-01-05T20:00:00Z,29.4412,-92.0613,15.98,11111222 
WAVCIS,ioos:station:WAVCIS:CSI03:1,2017-01-05T21:00:00Z,29.4412,-92.0613,17.0,11111222 
WAVCIS,ioos:station:WAVCIS:CSI03:1,2017-01-05T22:00:00Z,29.4412,-92.0613,17.17,11111222 
WAVCIS,ioos:station:WAVCIS:CSI03:1,2017-01-05T23:00:00Z,29.4412,-92.0613,17.06,11111222 
WAVCIS,ioos:station:WAVCIS:CSI03:1,2017-01-06T00:00:00Z,29.4412,-92.0613,17.49,11111222 
WAVCIS,ioos:station:WAVCIS:CSI03:1,2017-01-06T01:00:00Z,29.4412,-92.0613,21.25,11111222 
WAVCIS,ioos:station:WAVCIS:CSI03:1,2017-01-06T02:00:00Z,29.4412,-92.0613,13.66,11111222 
WAVCIS,ioos:station:WAVCIS:CSI03:1,2017-01-06T03:00:00Z,29.4412,-92.0613,12.97,11111222 
WAVCIS,ioos:station:WAVCIS:CSI03:1,2017-01-06T04:00:00Z,29.4412,-92.0613,12.8,11111222 
WAVCIS,ioos:station:WAVCIS:CSI03:1,2017-01-06T05:00:00Z,29.4412,-92.0613,12.22,11111222 
WAVCIS,ioos:station:WAVCIS:CSI03:1,2017-01-06T06:00:00Z,29.4412,-92.0613,11.29,11111222 
WAVCIS,ioos:station:WAVCIS:CSI03:1,2017-01-06T07:00:00Z,29.4412,-92.0613,10.26,11111222 
WAVCIS,ioos:station:WAVCIS:CSI03:1,2017-01-06T08:00:00Z,29.4412,-92.0613,8.78,11111222 
WAVCIS,ioos:station:WAVCIS:CSI03:1,2017-01-06T09:00:00Z,29.4412,-92.0613,8.53,11111222 
WAVCIS,ioos:station:WAVCIS:CSI03:1,2017-01-06T10:00:00Z,29.4412,-92.0613,8.64,11111222 
WAVCIS,ioos:station:WAVCIS:CSI03:1,2017-01-06T11:00:00Z,29.4412,-92.0613,8.37,11111222 
WAVCIS,ioos:station:WAVCIS:CSI03:1,2017-01-06T12:00:00Z,29.4412,-92.0613,7.74,11111222 
WAVCIS,ioos:station:WAVCIS:CSI03:1,2017-01-06T13:00:00Z,29.4412,-92.0613,6.611,11111222 
WAVCIS,ioos:station:WAVCIS:CSI03:1,2017-01-06T14:00:00Z,29.4412,-92.0613,5.836,11111222 
WAVCIS,ioos:station:WAVCIS:CSI03:1,2017-01-06T15:00:00Z,29.4412,-92.0613,4.765,11111222 
WAVCIS,ioos:station:WAVCIS:CSI03:1,2017-01-06T16:00:00Z,29.4412,-92.0613,4.652,11111222 
WAVCIS,ioos:station:WAVCIS:CSI03:1,2017-01-06T17:00:00Z,29.4412,-92.0613,4.757,11111222 
WAVCIS,ioos:station:WAVCIS:CSI03:1,2017-01-06T18:00:00Z,29.4412,-92.0613,3.798,11111222 
WAVCIS,ioos:station:WAVCIS:CSI03:1,2017-01-06T19:00:00Z,29.4412,-92.0613,4.476,11111222 
WAVCIS,ioos:station:WAVCIS:CSI03:1,2017-01-06T20:00:00Z,29.4412,-92.0613,4.149,11111222 
WAVCIS,ioos:station:WAVCIS:CSI03:1,2017-01-06T21:00:00Z,29.4412,-92.0613,4.011,11111222 
WAVCIS,ioos:station:WAVCIS:CSI03:1,2017-01-06T22:00:00Z,29.4412,-92.0613,3.663,11111222 
WAVCIS,ioos:station:WAVCIS:CSI03:1,2017-01-06T23:00:00Z,29.4412,-92.0613,2.953,11111222 
WAVCIS,ioos:station:WAVCIS:CSI03:1,2017-01-07T00:00:00Z,29.4412,-92.0613,2.797,11111222 
WAVCIS,ioos:station:WAVCIS:CSI03:1,2017-01-07T01:00:00Z,29.4412,-92.0613,2.645,11111222 
WAVCIS,ioos:station:WAVCIS:CSI03:1,2017-01-07T02:00:00Z,29.4412,-92.0613,2.224,11111222 
WAVCIS,ioos:station:WAVCIS:CSI03:1,2017-01-07T03:00:00Z,29.4412,-92.0613,1.845,11111222 
WAVCIS,ioos:station:WAVCIS:CSI03:1,2017-01-07T04:00:00Z,29.4412,-92.0613,1.054,11111222 
WAVCIS,ioos:station:WAVCIS:CSI03:1,2017-01-07T05:00:00Z,29.4412,-92.0613,0.408,11111222 
WAVCIS,ioos:station:WAVCIS:CSI03:1,2017-01-07T06:00:00Z,29.4412,-92.0613,0.41,11111222 
WAVCIS,ioos:station:WAVCIS:CSI03:1,2017-01-07T07:00:00Z,29.4412,-92.0613,-0.578,11133222 
WAVCIS,ioos:station:WAVCIS:CSI03:1,2017-01-07T08:00:00Z,29.4412,-92.0613,-1.19,11133222 
WAVCIS,ioos:station:WAVCIS:CSI03:1,2017-01-07T09:00:00Z,29.4412,-92.0613,-1.538,11133222 
WAVCIS,ioos:station:WAVCIS:CSI03:1,2017-01-07T10:00:00Z,29.4412,-92.0613,-1.724,11133222 
WAVCIS,ioos:station:WAVCIS:CSI03:1,2017-01-07T11:00:00Z,29.4412,-92.0613,-2.772,11133222 
WAVCIS,ioos:station:WAVCIS:CSI03:1,2017-01-07T12:00:00Z,29.4412,-92.0613,-2.941,11133222 
WAVCIS,ioos:station:WAVCIS:CSI03:1,2017-01-07T13:00:00Z,29.4412,-92.0613,-3.188,11133222 
WAVCIS,ioos:station:WAVCIS:CSI03:1,2017-01-07T14:00:00Z,29.4412,-92.0613,-3.102,11133222 
WAVCIS,ioos:station:WAVCIS:CSI03:1,2017-01-07T15:00:00Z,29.4412,-92.0613,-3.073,11133222 
WAVCIS,ioos:station:WAVCIS:CSI03:1,2017-01-07T16:00:00Z,29.4412,-92.0613,-2.47,11133222 
WAVCIS,ioos:station:WAVCIS:CSI03:1,2017-01-07T17:00:00Z,29.4412,-92.0613,-1.717,11133222 
WAVCIS,ioos:station:WAVCIS:CSI03:1,2017-01-07T18:00:00Z,29.4412,-92.0613,-0.729,11133222 
WAVCIS,ioos:station:WAVCIS:CSI03:1,2017-01-07T19:00:00Z,29.4412,-92.0613,0.112,11111222 
WAVCIS,ioos:station:WAVCIS:CSI03:1,2017-01-07T20:00:00Z,29.4412,-92.0613,1.128,11111222 
WAVCIS,ioos:station:WAVCIS:CSI03:1,2017-01-07T21:00:00Z,29.4412,-92.0613,2.152,11111222 
WAVCIS,ioos:station:WAVCIS:CSI03:1,2017-01-07T22:00:00Z,29.4412,-92.0613,2.665,11111222 
WAVCIS,ioos:station:WAVCIS:CSI03:1,2017-01-07T23:00:00Z,29.4412,-92.0613,2.67,11111222 
WAVCIS,ioos:station:WAVCIS:CSI03:1,2017-01-08T00:00:00Z,29.4412,-92.0613,2.314,11111222 
WAVCIS,ioos:station:WAVCIS:CSI03:1,2017-01-08T01:00:00Z,29.4412,-92.0613,1.806,11111222 
WAVCIS,ioos:station:WAVCIS:CSI03:1,2017-01-08T02:00:00Z,29.4412,-92.0613,1.448,11111222 
WAVCIS,ioos:station:WAVCIS:CSI03:1,2017-01-08T03:00:00Z,29.4412,-92.0613,1.217,11111222 
WAVCIS,ioos:station:WAVCIS:CSI03:1,2017-01-08T04:00:00Z,29.4412,-92.0613,0.987,11111222 
WAVCIS,ioos:station:WAVCIS:CSI03:1,2017-01-08T05:00:00Z,29.4412,-92.0613,0.555,11111222 
WAVCIS,ioos:station:WAVCIS:CSI03:1,2017-01-08T06:00:00Z,29.4412,-92.0613,0.5,11111222 
WAVCIS,ioos:station:WAVCIS:CSI03:1,2017-01-08T07:00:00Z,29.4412,-92.0613,0.345,11111222 
WAVCIS,ioos:station:WAVCIS:CSI03:1,2017-01-08T08:00:00Z,29.4412,-92.0613,0.368,11111222 
WAVCIS,ioos:station:WAVCIS:CSI03:1,2017-01-08T09:00:00Z,29.4412,-92.0613,0.349,11111222 
WAVCIS,ioos:station:WAVCIS:CSI03:1,2017-01-08T10:00:00Z,29.4412,-92.0613,0.1,11111222 
WAVCIS,ioos:station:WAVCIS:CSI03:1,2017-01-08T11:00:00Z,29.4412,-92.0613,-0.29,11133222 
WAVCIS,ioos:station:WAVCIS:CSI03:1,2017-01-08T12:00:00Z,29.4412,-92.0613,-0.753,11133222 
WAVCIS,ioos:station:WAVCIS:CSI03:1,2017-01-08T13:00:00Z,29.4412,-92.0613,-1.013,11133222 
WAVCIS,ioos:station:WAVCIS:CSI03:1,2017-01-08T14:00:00Z,29.4412,-92.0613,-1.003,11133222 
WAVCIS,ioos:station:WAVCIS:CSI03:1,2017-01-08T15:00:00Z,29.4412,-92.0613,0.027,11111222 
WAVCIS,ioos:station:WAVCIS:CSI03:1,2017-01-08T16:00:00Z,29.4412,-92.0613,0.98,11111222 
WAVCIS,ioos:station:WAVCIS:CSI03:1,2017-01-08T17:00:00Z,29.4412,-92.0613,2.34,11111222 
WAVCIS,ioos:station:WAVCIS:CSI03:1,2017-01-08T18:00:00Z,29.4412,-92.0613,3.739,11111222 
WAVCIS,ioos:station:WAVCIS:CSI03:1,2017-01-08T19:00:00Z,29.4412,-92.0613,4.389,11111222 
WAVCIS,ioos:station:WAVCIS:CSI03:1,2017-01-08T20:00:00Z,29.4412,-92.0613,4.862,11111222 
WAVCIS,ioos:station:WAVCIS:CSI03:1,2017-01-08T21:00:00Z,29.4412,-92.0613,5.702,11111222 
WAVCIS,ioos:station:WAVCIS:CSI03:1,2017-01-08T22:00:00Z,29.4412,-92.0613,6.398,11111222 
WAVCIS,ioos:station:WAVCIS:CSI03:1,2017-01-08T23:00:00Z,29.4412,-92.0613,6.582,11111222 
WAVCIS,ioos:station:WAVCIS:CSI03:1,2017-01-09T00:00:00Z,29.4412,-92.0613,7.06,11111222 
WAVCIS,ioos:station:WAVCIS:CSI03:1,2017-01-09T01:00:00Z,29.4412,-92.0613,6.744,11111222 
WAVCIS,ioos:station:WAVCIS:CSI03:1,2017-01-09T02:00:00Z,29.4412,-92.0613,7.14,11111222 
WAVCIS,ioos:station:WAVCIS:CSI03:1,2017-01-09T03:00:00Z,29.4412,-92.0613,7.0,11111222 
WAVCIS,ioos:station:WAVCIS:CSI03:1,2017-01-09T04:00:00Z,29.4412,-92.0613,6.474,11111222 
WAVCIS,ioos:station:WAVCIS:CSI03:1,2017-01-09T05:00:00Z,29.4412,-92.0613,5.927,11111222 
WAVCIS,ioos:station:WAVCIS:CSI03:1,2017-01-09T06:00:00Z,29.4412,-92.0613,6.359,11111222 
WAVCIS,ioos:station:WAVCIS:CSI03:1,2017-01-09T07:00:00Z,29.4412,-92.0613,6.81,11111222 
WAVCIS,ioos:station:WAVCIS:CSI03:1,2017-01-09T08:00:00Z,29.4412,-92.0613,6.644,11111222 
WAVCIS,ioos:station:WAVCIS:CSI03:1,2017-01-09T09:00:00Z,29.4412,-92.0613,6.575,11111222 
WAVCIS,ioos:station:WAVCIS:CSI03:1,2017-01-09T10:00:00Z,29.4412,-92.0613,6.231,11111222 
WAVCIS,ioos:station:WAVCIS:CSI03:1,2017-01-09T11:00:00Z,29.4412,-92.0613,5.648,11111222 
WAVCIS,ioos:station:WAVCIS:CSI03:1,2017-01-09T12:00:00Z,29.4412,-92.0613,5.989,11111222 
WAVCIS,ioos:station:WAVCIS:CSI03:1,2017-01-09T13:00:00Z,29.4412,-92.0613,5.875,11111222 
WAVCIS,ioos:station:WAVCIS:CSI03:1,2017-01-09T14:00:00Z,29.4412,-92.0613,6.087,11111222 
WAVCIS,ioos:station:WAVCIS:CSI03:1,2017-01-09T15:00:00Z,29.4412,-92.0613,7.9,11111222 
WAVCIS,ioos:station:WAVCIS:CSI03:1,2017-01-09T16:00:00Z,29.4412,-92.0613,8.98,11111222 
WAVCIS,ioos:station:WAVCIS:CSI03:1,2017-01-09T17:00:00Z,29.4412,-92.0613,9.71,11111222 
WAVCIS,ioos:station:WAVCIS:CSI03:1,2017-01-09T18:00:00Z,29.4412,-92.0613,10.54,11111222 
WAVCIS,ioos:station:WAVCIS:CSI03:1,2017-01-09T19:00:00Z,29.4412,-92.0613,11.16,11111222 
WAVCIS,ioos:station:WAVCIS:CSI03:1,2017-01-09T20:00:00Z,29.4412,-92.0613,12.2,11111222 
WAVCIS,ioos:station:WAVCIS:CSI03:1,2017-01-09T21:00:00Z,29.4412,-92.0613,12.51,11111222 
WAVCIS,ioos:station:WAVCIS:CSI03:1,2017-01-09T22:00:00Z,29.4412,-92.0613,13.7,11111222 
WAVCIS,ioos:station:WAVCIS:CSI03:1,2017-01-09T23:00:00Z,29.4412,-92.0613,12.25,11111222 
WAVCIS,ioos:station:WAVCIS:CSI03:1,2017-01-10T00:00:00Z,29.4412,-92.0613,12.2,11111222 
WAVCIS,ioos:station:WAVCIS:CSI03:1,2017-01-10T01:00:00Z,29.4412,-92.0613,12.13,11111222 
WAVCIS,ioos:station:WAVCIS:CSI03:1,2017-01-10T02:00:00Z,29.4412,-92.0613,12.2,11111222 
WAVCIS,ioos:station:WAVCIS:CSI03:1,2017-01-10T03:00:00Z,29.4412,-92.0613,13.95,11111222 
WAVCIS,ioos:station:WAVCIS:CSI03:1,2017-01-10T04:00:00Z,29.4412,-92.0613,14.77,11111222 
WAVCIS,ioos:station:WAVCIS:CSI03:1,2017-01-10T05:00:00Z,29.4412,-92.0613,14.41,11111222 
WAVCIS,ioos:station:WAVCIS:CSI03:1,2017-01-10T06:00:00Z,29.4412,-92.0613,13.98,11111222 
WAVCIS,ioos:station:WAVCIS:CSI03:1,2017-01-10T07:00:00Z,29.4412,-92.0613,16.52,11111222 
WAVCIS,ioos:station:WAVCIS:CSI03:1,2017-01-10T08:00:00Z,29.4412,-92.0613,19.1,11111222 
WAVCIS,ioos:station:WAVCIS:CSI03:1,2017-01-10T09:00:00Z,29.4412,-92.0613,17.64,11111222 
WAVCIS,ioos:station:WAVCIS:CSI03:1,2017-01-10T10:00:00Z,29.4412,-92.0613,18.96,11111222 
WAVCIS,ioos:station:WAVCIS:CSI03:1,2017-01-10T11:00:00Z,29.4412,-92.0613,17.8,11111222 
WAVCIS,ioos:station:WAVCIS:CSI03:1,2017-01-10T12:00:00Z,29.4412,-92.0613,17.93,11111222 
WAVCIS,ioos:station:WAVCIS:CSI03:1,2017-01-10T13:00:00Z,29.4412,-92.0613,19.03,11111222 
WAVCIS,ioos:station:WAVCIS:CSI03:1,2017-01-10T14:00:00Z,29.4412,-92.0613,18.95,11111222 
WAVCIS,ioos:station:WAVCIS:CSI03:1,2017-01-10T15:00:00Z,29.4412,-92.0613,19.59,11111222 
WAVCIS,ioos:station:WAVCIS:CSI03:1,2017-01-10T16:00:00Z,29.4412,-92.0613,18.91,11111222 
WAVCIS,ioos:station:WAVCIS:CSI03:1,2017-01-10T17:00:00Z,29.4412,-92.0613,18.8,11111222 
WAVCIS,ioos:station:WAVCIS:CSI03:1,2017-01-10T18:00:00Z,29.4412,-92.0613,19.54,11111222 
WAVCIS,ioos:station:WAVCIS:CSI03:1,2017-01-10T19:00:00Z,29.4412,-92.0613,18.35,11111222 
WAVCIS,ioos:station:WAVCIS:CSI03:1,2017-01-10T20:00:00Z,29.4412,-92.0613,18.07,11111222 
WAVCIS,ioos:station:WAVCIS:CSI03:1,2017-01-10T21:00:00Z,29.4412,-92.0613,20.72,11111222 
WAVCIS,ioos:station:WAVCIS:CSI03:1,2017-01-10T22:00:00Z,29.4412,-92.0613,19.78,11111222 
WAVCIS,ioos:station:WAVCIS:CSI03:1,2017-01-10T23:00:00Z,29.4412,-92.0613,19.57,11111222 
WAVCIS,ioos:station:WAVCIS:CSI03:1,2017-01-11T00:00:00Z,29.4412,-92.0613,18.14,11111222 
WAVCIS,ioos:station:WAVCIS:CSI03:1,2017-01-11T01:00:00Z,29.4412,-92.0613,17.25,11111222 
WAVCIS,ioos:station:WAVCIS:CSI03:1,2017-01-11T02:00:00Z,29.4412,-92.0613,19.04,11111222 
WAVCIS,ioos:station:WAVCIS:CSI03:1,2017-01-11T03:00:00Z,29.4412,-92.0613,19.17,11111222 
WAVCIS,ioos:station:WAVCIS:CSI03:1,2017-01-11T04:00:00Z,29.4412,-92.0613,19.62,11111222 
WAVCIS,ioos:station:WAVCIS:CSI03:1,2017-01-11T05:00:00Z,29.4412,-92.0613,17.46,11111222 
WAVCIS,ioos:station:WAVCIS:CSI03:1,2017-01-11T06:00:00Z,29.4412,-92.0613,17.48,11111222 
WAVCIS,ioos:station:WAVCIS:CSI03:1,2017-01-11T07:00:00Z,29.4412,-92.0613,20.12,11111222 
WAVCIS,ioos:station:WAVCIS:CSI03:1,2017-01-11T08:00:00Z,29.4412,-92.0613,19.35,11111222 
WAVCIS,ioos:station:WAVCIS:CSI03:1,2017-01-11T09:00:00Z,29.4412,-92.0613,19.28,11111222 
WAVCIS,ioos:station:WAVCIS:CSI03:1,2017-01-11T10:00:00Z,29.4412,-92.0613,17.37,11111222 
WAVCIS,ioos:station:WAVCIS:CSI03:1,2017-01-11T11:00:00Z,29.4412,-92.0613,15.87,11111222 
WAVCIS,ioos:station:WAVCIS:CSI03:1,2017-01-11T12:00:00Z,29.4412,-92.0613,15.83,11111222 
WAVCIS,ioos:station:WAVCIS:CSI03:1,2017-01-11T13:00:00Z,29.4412,-92.0613,16.56,11111222 
WAVCIS,ioos:station:WAVCIS:CSI03:1,2017-01-11T14:00:00Z,29.4412,-92.0613,16.43,11111222 
WAVCIS,ioos:station:WAVCIS:CSI03:1,2017-01-11T15:00:00Z,29.4412,-92.0613,17.28,11111222 
WAVCIS,ioos:station:WAVCIS:CSI03:1,2017-01-11T16:00:00Z,29.4412,-92.0613,17.71,11111222 
WAVCIS,ioos:station:WAVCIS:CSI03:1,2017-01-11T17:00:00Z,29.4412,-92.0613,16.63,11111222 
WAVCIS,ioos:station:WAVCIS:CSI03:1,2017-01-11T18:00:00Z,29.4412,-92.0613,16.85,11111222 
WAVCIS,ioos:station:WAVCIS:CSI03:1,2017-01-11T19:00:00Z,29.4412,-92.0613,16.57,11111222 
WAVCIS,ioos:station:WAVCIS:CSI03:1,2017-01-11T20:00:00Z,29.4412,-92.0613,16.69,11111222 
WAVCIS,ioos:station:WAVCIS:CSI03:1,2017-01-11T21:00:00Z,29.4412,-92.0613,16.65,11111222 
WAVCIS,ioos:station:WAVCIS:CSI03:1,2017-01-11T22:00:00Z,29.4412,-92.0613,17.2,11111222 
WAVCIS,ioos:station:WAVCIS:CSI03:1,2017-01-11T23:00:00Z,29.4412,-92.0613,16.52,11111222 
WAVCIS,ioos:station:WAVCIS:CSI03:1,2017-01-12T00:00:00Z,29.4412,-92.0613,16.73,11111222 
WAVCIS,ioos:station:WAVCIS:CSI03:1,2017-01-12T01:00:00Z,29.4412,-92.0613,16.41,11111222 
WAVCIS,ioos:station:WAVCIS:CSI03:1,2017-01-12T02:00:00Z,29.4412,-92.0613,16.7,11111222 
WAVCIS,ioos:station:WAVCIS:CSI03:1,2017-01-12T03:00:00Z,29.4412,-92.0613,16.02,11111222 
WAVCIS,ioos:station:WAVCIS:CSI03:1,2017-01-12T04:00:00Z,29.4412,-92.0613,16.75,11111222 